Date,TemperatureHighF,TemperatureAvgF,TemperatureLowF,DewpointHighF,DewpointAvgF,DewpointLowF,HumidityHigh,HumidityAvg,HumidityLow,PressureMaxIn,PressureMinIn,WindSpeedMaxMPH,WindSpeedAvgMPH,GustSpeedMaxMPH,PrecipitationSumIn
2013-3-1,58.5,42.0,31.8,36.8,31.2,25.4,81,67,39,31.09,30.99,5,1,10,0.02
2013-3-2,63.1,44.5,30.7,40.5,36.0,25.3,85,73,43,30.99,30.81,4,1,9,0.04
2013-3-3,46.0,42.8,38.8,40.5,36.1,32.4,85,77,63,30.82,30.64,3,0,9,0.00
2013-3-4,49.1,40.1,32.5,33.2,31.4,26.2,81,71,53,30.65,30.30,2,0,4,0.00
2013-3-5,55.2,38.2,28.4,35.5,29.6,24.2,86,72,42,30.30,30.18,3,0,5,0.01
2013-3-6,41.2,37.1,29.8,34.4,31.2,23.8,84,79,73,30.25,30.19,4,1,10,0.04
2013-3-7,43.5,40.6,38.5,39.1,36.2,34.1,88,84,80,30.18,30.04,7,3,12,0.09
2013-3-8,39.9,38.8,37.2,35.4,33.8,31.9,85,82,79,30.26,30.06,8,3,16,0.04
2013-3-9,39.2,36.7,33.3,33.5,29.7,23.8,85,76,63,30.46,30.25,4,2,14,0.02
2013-3-10,39.2,31.7,24.8,31.3,23.3,17.1,79,71,61,30.68,30.44,6,2,14,0.01
2013-3-11,25.5,23.0,21.0,17.3,14.4,11.0,74,69,58,30.68,29.91,3,0,6,0.02
2013-3-12,50.9,32.4,18.9,29.2,20.2,8.4,75,61,38,29.91,29.67,2,0,8,0.00
2013-3-13,50.4,34.1,24.6,25.4,20.3,15.1,79,59,29,29.75,29.63,4,1,8,0.05
2013-3-14,46.6,36.7,24.4,37.9,30.1,16.1,86,77,68,29.75,29.34,8,2,14,0.07
2013-3-15,52.2,40.3,31.8,37.6,33.5,26.1,86,77,52,29.33,29.11,10,3,16,0.01
2013-3-16,39.2,34.9,30.9,34.3,29.7,26.4,84,81,75,29.13,29.00,4,1,7,0.01
2013-3-17,43.0,36.2,32.0,37.9,31.7,27.7,88,84,80,29.02,28.87,4,1,9,0.15
2013-3-18,39.9,35.5,31.5,34.7,30.1,25.1,89,81,73,29.31,29.01,4,2,12,0.14
2013-3-19,37.2,33.0,30.9,29.0,27.2,25.1,85,79,69,29.41,29.29,8,3,18,0.01
2013-3-20,48.0,34.8,30.4,33.5,27.5,22.5,85,75,57,29.80,29.41,4,1,8,0.07
2013-3-21,41.0,32.9,27.1,26.6,22.7,19.3,79,66,54,29.83,29.73,5,2,14,0.00
2013-3-22,34.9,32.9,31.1,27.5,25.7,22.0,84,75,61,29.74,29.62,10,4,17,0.06
2013-3-23,33.4,32.0,30.7,26.4,23.4,18.8,83,71,59,29.92,29.73,9,4,18,0.04
2013-3-24,36.7,33.3,31.5,22.1,20.2,18.5,63,58,50,30.05,29.91,8,3,17,0.00
2013-3-25,37.8,32.9,28.8,25.9,22.5,20.6,75,65,56,30.06,30.01,6,2,12,0.00
2013-3-26,39.7,32.0,27.3,27.3,23.3,19.0,81,70,53,30.02,29.92,4,1,11,0.05
2013-3-27,42.4,32.0,27.3,29.4,24.2,19.8,83,73,55,29.93,29.85,4,2,10,0.00
2013-3-28,45.0,33.9,29.8,26.1,23.2,19.0,78,66,43,29.87,29.81,7,1,8,0.00
2013-3-29,44.4,33.7,27.5,27.3,23.0,17.5,78,65,46,29.81,29.68,4,1,8,0.00
2013-3-30,43.7,33.9,27.0,25.6,21.7,18.7,75,61,43,29.77,29.71,3,1,6,0.00
2013-3-31,48.4,35.7,27.9,24.4,21.1,17.4,75,56,33,29.77,29.72,4,1,7,0.00